This is the latest recevied weather packets stored in our database for station/object DL4YM-13. If no packets are shown the sender has not sent any weather packets the latest 10 day(s).
| Time | Temp. | Humidity | Pressure | Rain* | Wind** | Luminosity | Snow |
|---|---|---|---|---|---|---|---|
| 1777934726 | 12.22° C | 10% | 996.9 hPa | - | - | - | - |
| 1777934126 | 12.22° C | 10% | 997.1 hPa | - | - | - | - |
| 1777933526 | 12.22° C | 10% | 997.1 hPa | - | - | - | - |
| 1777932926 | 12.78° C | 10% | 997.2 hPa | - | - | - | - |
| 1777932327 | 12.78° C | 10% | 997.2 hPa | - | - | - | - |
| 1777931726 | 12.78° C | 10% | 997.3 hPa | - | - | - | - |
| 1777931126 | 12.78° C | 10% | 997.3 hPa | - | - | - | - |
| 1777930526 | 12.78° C | 10% | 997.3 hPa | - | - | - | - |
| 1777929926 | 12.78° C | 10% | 997.3 hPa | - | - | - | - |
| 1777929327 | 12.78° C | 99% | 997.4 hPa | - | - | - | - |
| 1777928726 | 12.78° C | 99% | 997.3 hPa | - | - | - | - |
| 1777928127 | 12.78° C | 98% | 997.4 hPa | - | - | - | - |
| 1777927526 | 12.78° C | 97% | 997.3 hPa | - | - | - | - |
| 1777926927 | 12.78° C | 97% | 997.3 hPa | - | - | - | - |
| 1777926327 | 12.78° C | 97% | 997.2 hPa | - | - | - | - |
| 1777925727 | 13.33° C | 98% | 997 hPa | - | - | - | - |
| 1777925127 | 12.78° C | 95% | 997.3 hPa | - | - | - | - |
| 1777924527 | 12.78° C | 95% | 997.3 hPa | - | - | - | - |
| 1777923926 | 12.78° C | 95% | 997.3 hPa | - | - | - | - |
| 1777923327 | 12.78° C | 95% | 997.3 hPa | - | - | - | - |
| 1777922742 | 13.33° C | 94% | 997.2 hPa | - | - | - | - |
| 1777922126 | 13.33° C | 94% | 997.2 hPa | - | - | - | - |
| 1777921527 | 13.33° C | 92% | 997.2 hPa | - | - | - | - |
| 1777920926 | 13.33° C | 90% | 997.3 hPa | - | - | - | - |
| 1777920326 | 13.89° C | 88% | 997.1 hPa | - | - | - | - |
* Rain since midnight (hover to see other rain measurements)
** Current wind speed in m/s (hover to see current wind gust speed)